Location: Dal�� Lhota
(48.7500°N, 14.0167°E)
Time: 11:24:34
(UTC+00:00)

SR - All Passes

Search period start: 03 August 2021 00:00
Search period end: 13 August 2021 00:00
Orbit: 577 x 877 km, 66.7° (Epoch: 02 August)

Date Brightness Start Highest point End Pass type
(mag) Time Alt. Az. Time Alt. Az. Time Alt. Az.
03 Aug - 03:51:21 10° S 03:56:16 29° ESE 04:00:58 10° NE daylight
03 Aug - 05:32:25 10° SW 05:38:07 59° NW 05:43:28 10° NNE daylight
03 Aug - 07:17:25 10° WNW 07:21:14 18° NNW 07:24:54 10° NNE daylight
03 Aug - 09:04:39 10° NNW 09:05:29 10° N 09:06:19 10° N daylight
03 Aug - 10:46:56 10° NNW 10:49:52 15° NNE 10:52:39 10° ENE daylight
03 Aug - 12:28:24 10° NNW 12:33:11 49° NE 12:37:34 10° ESE daylight
03 Aug - 14:11:01 10° NW 14:14:55 26° WSW 14:18:35 10° SSW daylight
04 Aug - 03:03:24 10° SE 03:06:49 16° ESE 03:10:07 10° ENE visible
04 Aug - 04:42:25 10° SSW 04:48:13 84° ESE 04:53:40 10° NE daylight
04 Aug - 06:26:14 10° W 06:30:54 26° NW 06:35:19 10° NNE daylight
04 Aug - 08:13:03 10° NNW 08:14:49 11° NNW 08:16:33 10° N daylight
04 Aug - 09:57:23 10° N 09:59:18 12° NNE 10:01:09 10° NE daylight
04 Aug - 11:38:43 10° NNW 11:43:05 30° NE 11:47:07 10° E daylight
04 Aug - 13:20:44 10° NW 13:25:23 50° WSW 13:29:41 10° SSE daylight
05 Aug - 03:52:57 10° S 03:58:29 48° ESE 04:03:43 10° NE daylight
05 Aug - 05:35:24 10° WSW 05:40:42 39° NW 05:45:42 10° NNE daylight
05 Aug - 07:21:22 10° NW 07:24:14 14° NNW 07:27:00 10° N daylight
05 Aug - 09:07:48 10° N 09:08:39 10° N 09:09:30 10° NNE daylight
05 Aug - 10:49:07 10° NNW 10:52:47 20° NNE 10:56:14 10° ENE daylight
05 Aug - 12:30:46 10° NW 12:35:40 84° NE 12:40:07 10° SE daylight
05 Aug - 14:14:32 10° WNW 14:16:52 14° WSW 14:19:08 10° SW daylight
06 Aug - 03:04:05 10° SSE 03:08:53 27° ESE 03:13:27 10° NE visible
06 Aug - 04:44:58 10° SW 04:50:41 62° NW 04:56:01 10° NNE daylight
06 Aug - 06:29:52 10° WNW 06:33:45 19° NNW 06:37:28 10° NNE daylight
06 Aug - 08:17:15 10° NNW 08:17:58 10° N 08:18:41 10° N daylight
06 Aug - 09:59:35 10° NNW 10:02:21 15° NNE 10:05:00 10° NE daylight
06 Aug - 11:41:00 10° NNW 11:45:43 46° NE 11:50:04 10° ESE daylight
06 Aug - 13:23:31 10° NW 13:27:30 27° WSW 13:31:14 10° S daylight
07 Aug - 02:16:18 10° SE 02:19:26 15° ESE 02:22:29 10° ENE visible
07 Aug - 03:55:01 10° SSW 04:00:48 80° ESE 04:06:14 10° NE daylight
07 Aug - 05:38:42 10° W 05:43:25 27° NW 05:47:53 10° NNE daylight
07 Aug - 07:25:30 10° NNW 07:27:18 12° NNW 07:29:04 10° N daylight
07 Aug - 09:10:04 10° N 09:11:47 12° NNE 09:13:27 10° NNE daylight
07 Aug - 10:51:20 10° NNW 10:55:36 28° NE 10:59:33 10° E daylight
07 Aug - 12:33:17 10° NW 12:37:57 54° WSW 12:42:16 10° SSE daylight
08 Aug - 03:05:36 10° S 03:11:04 45° ESE 03:16:14 10° NE visible
08 Aug - 04:47:55 10° WSW 04:53:15 40° NW 04:58:16 10° NNE daylight
08 Aug - 06:33:48 10° NW 06:36:44 14° NNW 06:39:33 10° N daylight
08 Aug - 08:20:36 10° N 08:21:07 10° N 08:21:39 10° N daylight
08 Aug - 10:01:45 10° NNW 10:05:17 19° NNE 10:08:38 10° ENE daylight
08 Aug - 11:43:21 10° NW 11:48:12 79° NE 11:52:38 10° SE daylight
08 Aug - 13:26:56 10° WNW 13:29:28 15° WSW 13:31:57 10° SW daylight
09 Aug - 02:16:50 10° SSE 02:21:29 26° ESE 02:25:56 10° ENE visible
09 Aug - 03:57:32 10° SW 04:03:15 65° NW 04:08:35 10° NNE daylight
09 Aug - 05:42:19 10° WNW 05:46:15 19° NNW 05:50:01 10° NNE daylight
09 Aug - 07:29:49 10° NNW 07:30:26 10° N 07:31:03 10° N daylight
09 Aug - 09:12:13 10° N 09:14:50 14° NNE 09:17:20 10° NE daylight
09 Aug - 10:53:35 10° NNW 10:58:14 43° NE 11:02:32 10° ESE daylight
09 Aug - 12:36:02 10° NW 12:40:05 29° WSW 12:43:53 10° S daylight
10 Aug - 01:29:13 10° SE 01:32:03 14° ESE 01:34:49 10° ENE visible
10 Aug - 03:07:38 10° SSW 03:13:23 75° ESE 03:18:45 10° NE visible
10 Aug - 04:51:11 10° W 04:55:57 28° NW 05:00:27 10° NNE daylight
10 Aug - 06:37:56 10° NW 06:39:47 12° NNW 06:41:35 10° N daylight
10 Aug - 08:22:44 10° N 08:24:15 11° NNE 08:25:43 10° NNE daylight
10 Aug - 10:03:57 10° NNW 10:08:06 27° NE 10:11:58 10° E daylight
10 Aug - 11:45:50 10° NW 11:50:31 58° WSW 11:54:50 10° SSE daylight
11 Aug - 02:18:16 10° S 02:23:40 43° ESE 02:28:45 10° NE visible
11 Aug - 04:00:26 10° WSW 04:05:48 42° NW 04:10:50 10° NNE daylight
11 Aug - 05:46:13 10° WNW 05:49:13 15° NNW 05:52:05 10° N daylight
11 Aug - 09:14:22 10° NNW 09:17:47 18° NNE 09:21:00 10° ENE daylight
11 Aug - 10:55:55 10° NNW 11:00:45 74° NE 11:05:09 10° SE daylight
11 Aug - 12:39:19 10° WNW 12:42:05 16° WSW 12:44:43 10° SW daylight
12 Aug - 01:29:35 10° SSE 01:34:05 24° ESE 01:38:24 10° ENE visible
12 Aug - 03:10:06 10° SW 03:15:48 69° NW 03:21:08 10° NNE visible
12 Aug - 04:54:47 10° WNW 04:58:46 20° NNW 05:02:34 10° NNE daylight
12 Aug - 06:42:21 10° NNW 06:42:54 10° N 06:43:27 10° N daylight
12 Aug - 08:24:51 10° N 08:27:18 13° NNE 08:29:40 10° NE daylight
12 Aug - 10:06:11 10° NNW 10:10:45 41° NE 10:15:00 10° ESE daylight
12 Aug - 11:48:33 10° NW 11:52:40 31° WSW 11:56:31 10° S daylight
